Regional Weather Roundup
Issued by NWS

Home | Current Version | Previous Version | Graphics & Text | Print | Product List | Glossary On
Versions: 1 2 3 4 5 6 7 8 9 10 11 12 13 14 15 16 17 18 19 20 21 22 23 24 25 26 27 28 29 30 31 32 33 34 35 36 37 38 39 40 41 42 43 44 45 46 47 48 49 50
622
ASUS44 KLIX 311805
RWRLA
LOUISIANA WEATHER ROUNDUP
NATIONAL WEATHER SERVICE NEW ORLEANS LA
100 PM CDT THU JUL 31 2014

NOTE: "FAIR" INDICATES FEW OR NO CLOUDS BELOW 12,000 FEET WITH NO
      SIGNIFICANT WEATHER AND/OR OBSTRUCTIONS TO VISIBILITY.
      SKY/WX - SKY CONDITION AND SIGNIFICANT WEATHER.
      TMP - AIR TEMPERATURE.    DP   - DEWPOINT TEMPERATURE.
      RH  - RELATIVE HUMIDITY.  PRES - PRESSURE.
      HX  - HEAT INDEX.         WCI  - WIND CHILL INDEX.

*  THESE STATIONS ARE NOT NWS OR FAA STATIONS AND ARE NOT UNDER
   NWS QUALITY CONTROL.

LAZ040-048-061>063-065-066-069-311900-
SOUTHEAST LOUISIANA

CITY           SKY/WX    TMP DP  RH WIND       PRES   REMARKS
N.O. AUDUBON   NOT AVBL
N.O. INTL ARPT CLOUDY    88  65  46 N9        30.04S
6HR MIN TEMP:  73; 6HR MAX TEMP:  91;

N.O. LAKEFRONT PTSUNNY   85  63  47 N8        30.05S
6HR MIN TEMP:  77; 6HR MAX TEMP:  86;

N.O. DOWNTOWN* FAIR      88  63  42 N3        30.04S
6HR MIN TEMP:  79; 6HR MAX TEMP:  88;

SLIDELL        MOSUNNY   85  61  44 N6        30.04F
6HR MIN TEMP:  66; 6HR MAX TEMP:  85;

BATON ROUGE    MOSUNNY   86  65  49 VRB5      30.04F
6HR MIN TEMP:  70; 6HR MAX TEMP:  87;

BOOTHVILLE     PTSUNNY   85  68  56 N7        30.05S
6HR MIN TEMP:  75; 6HR MAX TEMP:  85;

BELLE CHASSE   PTSUNNY   86  66  51 E8        30.03F
6HR MIN TEMP:  71; 6HR MAX TEMP:  87;

BOGALUSA*      FAIR      84  63  48 CALM      30.07F
6HR MIN TEMP:  69; 6HR MAX TEMP:  84;

GALLIANO*      NOT AVBL
NEW ROADS*     FAIR      84  66  53 E8        30.03F
6HR MIN TEMP:  70; 6HR MAX TEMP:  85;

GONZALES*      FAIR      84  70  62 NE5       30.04S
6HR MIN TEMP:  68; 6HR MAX TEMP:  84;

HAMMOND*       MOSUNNY   88  61  40 N5        30.06F
HOUMA*         PTSUNNY   88  64  45 CALM      30.04S
PORT FOURCHON* PTCLDY    84  64  51 E9        30.06S

$$

LAZ041-044-053-054-311900-
SOUTHWEST LOUISIANA

CITY           SKY/WX    TMP DP  RH WIND       PRES   REMARKS
LAKE CHARLES   CLOUDY    86  71  60 S6        30.02R
6HR MIN TEMP:  73; 6HR MAX TEMP:  87;

LAFAYETTE      PTSUNNY   87  69  54 VRB3      30.03S
6HR MIN TEMP:  71; 6HR MAX TEMP:  87;

PATTERSON      PTSUNNY   88  72  58 SE3       30.07F
6HR MIN TEMP:  72; 6HR MAX TEMP:  88;

SALT POINT       N/A     87  73  62 CALM      30.03R
6HR MIN TEMP:  75; 6HR MAX TEMP:  89;

NEW IBERIA     PTSUNNY   89  69  51 VRB3      30.03F
6HR MIN TEMP:  73; 6HR MAX TEMP:  90; 6HR PCP: TRACE;

CHENAULT AIRPK PTSUNNY  N/A N/A N/A S3        30.03S

$$

LAZ027-028-311900-
CENTRAL LOUISIANA

CITY           SKY/WX    TMP DP  RH WIND       PRES   REMARKS
FORT POLK      CLOUDY    81  67  62 SE5       30.04S
6HR MIN TEMP:  72; 6HR MAX TEMP:  82;

ALEXANDRIA INT CLOUDY    82  66  58 S6        30.03S
6HR MIN TEMP:  72; 6HR MAX TEMP:  83;

ALEXANDRIA     CLOUDY    82  69  64 NE5       30.05S
6HR MIN TEMP:  72; 6HR MAX TEMP:  82;


$$

LAZ001-002-311900-
NORTHWEST LOUISIANA

CITY           SKY/WX    TMP DP  RH WIND       PRES   REMARKS
SHREVEPORT     CLOUDY    74  69  85 S9        30.02F
6HR MIN TEMP:  70; 6HR MAX TEMP:  74; 6HR PCP:  0.11;

BARKSDALE AFB  LGT RAIN  73  67  84 SE7       30.04F
6HR MIN TEMP:  69; 6HR MAX TEMP:  73; 6HR PCP:  0.10;

DTN SHREVEPORT LGT RAIN  73  68  84 SE5       30.03F
6HR MIN TEMP:  69; 6HR MAX TEMP:  73; 6HR PCP:  0.12;


$$

LAZ014-016-311900-
NORTHEAST LOUISIANA

CITY           SKY/WX    TMP DP  RH WIND       PRES   REMARKS
MONROE         CLOUDY    78  65  63 E5        30.07F
6HR MIN TEMP:  70; 6HR MAX TEMP:  78; 6HR PCP: TRACE;

TALLULAH       CLOUDY    79  63  57 SE7       30.06F
6HR MIN TEMP:  69; 6HR MAX TEMP:  79; 6HR PCP:  0.03;


$$




USA.gov is the U.S. government's official web portal to all federal, state and local government web resources and services.